DW9727 Weather Reports


Display with metric or nautical units.
time (UTC)temp
F
wind
direction
speed
MPH
gust
MPH
rain 1hr
in
rain 24hr
in
rain mn
in
humidity
%
barometer
mb
20260904093711 74 215 2.0 3.0 0.00 0.00 0.00 78 1006.8
20260904092711 75 223 2.0 3.0 0.00 0.00 0.00 78 1006.8
20260904091710 75 216 3.0 5.0 0.00 0.00 0.00 78 1006.8
20260904085710 76 209 2.0 3.0 0.00 0.00 0.00 76 1006.4
20260904084710 76 232 0.0 0.0 0.00 0.00 0.00 74 1006.2
20260904083710 76 232 0.0 0.0 0.00 0.00 0.00 74 1006.3
20260904082710 77 198 0.0 3.0 0.00 0.00 0.00 73 1006.1
20260904081711 77 212 2.0 8.0 0.00 0.00 0.00 73 1006.0
20260904080710 77 193 3.0 7.0 0.00 0.00 0.00 73 1006.0
20260904075710 77 215 5.0 8.0 0.00 0.00 0.00 72 1006.0
20260904074712 78 192 4.0 8.0 0.00 0.00 0.00 72 1006.0
20260904073710 78 195 6.0 12.0 0.00 0.00 0.00 71 1006.0
20260904072710 78 180 8.0 15.0 0.00 0.00 0.00 71 1006.0
20260904071711 78 169 8.0 14.0 0.00 0.00 0.00 70 1005.9
20260904070710 78 195 10.0 15.0 0.00 0.00 0.00 70 1006.1
20260904065710 78 164 8.0 14.0 0.00 0.00 0.00 70 1005.9
20260904064710 79 196 8.0 12.0 0.00 0.00 0.00 70 1006.0
20260904063711 79 205 7.0 12.0 0.00 0.00 0.00 70 1006.0
20260904062710 79 207 6.0 12.0 0.00 0.00 0.00 69 1005.9
20260904061711 79 209 8.0 12.0 0.00 0.00 0.00 69 1005.9
20260904060711 79 189 7.0 12.0 0.00 0.00 0.00 70 1005.8
20260904055711 79 171 7.0 12.0 0.00 0.00 0.00 70 1005.8
20260904053711 80 169 6.0 12.0 0.00 0.00 0.00 70 1005.6
20260904052710 80 198 5.0 8.0 0.00 0.00 0.00 70 1005.6
20260904050711 81 177 4.0 9.0 0.00 0.00 0.00 69 1005.6
20260904045711 81 182 3.0 7.0 0.00 0.00 0.00 69 1005.6
20260904044711 81 177 3.0 6.0 0.00 0.00 0.00 68 1005.7
20260904043710 82 194 2.0 6.0 0.00 0.00 0.00 68 1005.9
20260904042711 82 186 2.0 7.0 0.00 0.00 0.00 68 1005.8
20260904041710 83 171 1.0 3.0 0.00 0.00 0.00 67 1005.9
20260904040710 83 191 3.0 14.0 0.00 0.00 0.00 67 1005.8
20260904035711 83 198 5.0 9.0 0.00 0.00 0.00 66 1005.7
20260904033710 84 150 3.0 10.0 0.00 0.00 0.00 65 1005.7
20260904032710 85 178 3.0 8.0 0.00 0.00 0.00 65 1005.8
20260904031711 85 149 2.0 6.0 0.00 0.00 0.00 65 1005.7
20260904030711 85 159 2.0 5.0 0.00 0.00 0.00 65 1005.8
20260904025710 86 164 2.0 8.0 0.00 0.00 0.00 65 1005.6
20260904024711 86 142 1.0 5.0 0.00 0.00 0.00 65 1005.6
20260904021710 87 142 3.0 6.0 0.00 0.00 0.00 64 1005.4
20260904020710 87 150 1.0 3.0 0.00 0.00 0.00 64 1005.3
20260904015711 88 63 1.0 2.0 0.00 0.00 0.00 63 1005.1
20260904014710 88 95 0.0 3.0 0.00 0.00 0.00 62 1004.9
20260904013710 89 123 3.0 7.0 0.00 0.00 0.00 62 1004.8
20260904012710 89 141 3.0 8.0 0.00 0.00 0.00 62 1004.7
20260904010710 90 145 2.0 7.0 0.00 0.00 0.00 60 1004.4
20260904005711 91 109 3.0 9.0 0.00 0.00 0.00 59 1004.3
20260904004711 92 155 4.0 9.0 0.00 0.00 0.00 57 1004.3
20260904003711 92 152 3.0 6.0 0.00 0.00 0.00 56 1004.4
20260904002711 93 173 3.0 7.0 0.00 0.00 0.00 55 1004.3
20260904001710 93 144 3.0 6.0 0.00 0.00 0.00 55 1004.2
20260904000711 93 157 3.0 7.0 0.00 0.00 0.00 55 1004.2
20260903235710 93 169 2.0 7.0 0.00 0.00 0.00 55 1004.2
20260903234711 94 178 4.0 9.0 0.00 0.00 0.00 54 1004.2
20260903233711 94 175 5.0 9.0 0.00 0.00 0.00 53 1004.2
20260903232710 95 196 6.0 12.0 0.00 0.00 0.00 53 1004.2
20260903231710 95 175 7.0 13.0 0.00 0.00 0.00 52 1004.1
20260903225711 96 188 7.0 12.0 0.00 0.00 0.00 51 1004.0
20260903224711 96 164 7.0 12.0 0.00 0.00 0.00 51 1003.8
20260903223711 96 182 6.0 12.0 0.00 0.00 0.00 52 1003.9
20260903222711 96 217 7.0 9.0 0.00 0.00 0.00 51 1003.9
20260903221710 96 198 5.0 10.0 0.00 0.00 0.00 53 1004.1
20260903220710 96 192 7.0 15.0 0.00 0.00 0.00 51 1004.1
20260903214710 96 214 9.0 12.0 0.00 0.00 0.00 51 1004.2
20260903213710 96 178 8.0 15.0 0.00 0.00 0.00 50 1004.3
20260903211711 96 199 7.0 14.0 0.00 0.00 0.00 50 1004.4
20260903210711 96 178 8.0 12.0 0.00 0.00 0.00 50 1004.4
20260903205711 95 207 5.0 20.0 0.00 0.00 0.00 50 1004.6
20260903204712 95 167 7.0 14.0 0.00 0.00 0.00 51 1004.6
20260903202711 95 142 9.0 14.0 0.00 0.00 0.00 51 1004.8
20260903201711 95 192 6.0 12.0 0.00 0.00 0.00 52 1004.7
20260903195711 94 205 3.0 15.0 0.00 0.00 0.00 55 1004.9
20260903194711 93 225 9.0 14.0 0.00 0.00 0.00 53 1004.9
20260903193710 93 200 7.0 15.0 0.00 0.00 0.00 52 1005.0
20260903192710 93 175 9.0 16.0 0.00 0.00 0.00 52 1005.0
20260903191710 93 184 9.0 15.0 0.00 0.00 0.00 53 1005.1
20260903190710 92 205 7.0 13.0 0.00 0.00 0.00 54 1005.0
20260903184710 91 219 10.0 17.0 0.00 0.00 0.00 55 1005.3
20260903183711 91 209 10.0 17.0 0.00 0.00 0.00 53 1005.5
20260903182711 91 217 9.0 16.0 0.00 0.00 0.00 56 1005.8
20260903181711 90 215 13.0 21.0 0.00 0.00 0.00 55 1006.0
20260903180711 90 217 10.0 20.0 0.00 0.00 0.00 56 1006.1
20260903175710 90 208 11.0 18.0 0.00 0.00 0.00 56 1006.0
20260903174710 90 211 13.0 24.0 0.00 0.00 0.00 56 1006.2
20260903173711 89 196 11.0 20.0 0.00 0.00 0.00 57 1006.1
20260903172711 89 164 10.0 18.0 0.00 0.00 0.00 56 1006.3
20260903170710 89 203 10.0 20.0 0.00 0.00 0.00 58 1006.5
20260903165711 89 203 9.0 17.0 0.00 0.00 0.00 58 1006.6
20260903164710 88 201 8.0 16.0 0.00 0.00 0.00 61 1006.5
20260903163710 87 178 9.0 15.0 0.00 0.00 0.00 61 1006.7
20260903161710 86 178 8.0 18.0 0.00 0.00 0.00 63 1006.7
20260903160711 85 180 8.0 12.0 0.00 0.00 0.00 61 1006.6
20260903155711 85 222 9.0 14.0 0.00 0.00 0.00 62 1006.4
20260903154711 85 173 7.0 13.0 0.00 0.00 0.00 63 1006.3
20260903153710 84 176 9.0 18.0 0.00 0.00 0.00 64 1006.3
20260903152710 84 194 10.0 17.0 0.00 0.00 0.00 64 1006.5
20260903150711 82 208 9.0 16.0 0.00 0.00 0.00 67 1006.3
20260903145710 81 229 10.0 16.0 0.00 0.00 0.00 67 1006.5
20260903142711 79 207 6.0 12.0 0.00 0.00 0.00 72 1007.1
20260903140711 77 205 3.0 7.0 0.00 0.00 0.00 75 1007.2
20260903135711 76 194 5.0 10.0 0.00 0.00 0.00 74 1006.9
20260903134710 77 194 6.0 8.0 0.00 0.00 0.00 74 1007.0
20260903133710 77 213 6.0 8.0 0.00 0.00 0.00 73 1007.0
20260903132710 76 234 5.0 8.0 0.00 0.00 0.00 74 1007.3
20260903131710 76 190 4.0 10.0 0.00 0.00 0.00 76 1007.2
20260903130710 75 204 6.0 9.0 0.00 0.00 0.00 76 1007.0
20260903125710 75 243 2.0 3.0 0.00 0.00 0.00 75 1007.0
20260903124711 75 267 2.0 3.0 0.00 0.00 0.00 74 1006.9
20260903123712 75 220 1.0 3.0 0.00 0.00 0.00 73 1006.5
20260903121711 76 186 2.0 7.0 0.00 0.00 0.00 72 1005.9
20260903115711 76 206 3.0 9.0 0.00 0.00 0.00 71 1005.7
20260903114710 77 180 5.0 10.0 0.00 0.00 0.00 70 1005.6
20260903113710 77 180 5.0 12.0 0.00 0.00 0.00 70 1005.6
20260903112711 77 174 7.0 13.0 0.00 0.00 0.00 69 1005.6
20260903111710 77 185 8.0 17.0 0.00 0.00 0.00 69 1005.4
20260903110711 78 191 9.0 16.0 0.00 0.00 0.00 68 1005.5
20260903105710 78 157 9.0 16.0 0.00 0.06 0.00 68 1005.5
20260903104711 78 182 9.0 16.0 0.00 0.06 0.00 67 1005.4
20260903103711 78 195 8.0 17.0 0.00 0.06 0.00 67 1005.4
20260903102710 78 168 9.0 15.0 0.00 0.06 0.00 67 1005.4
20260903101711 79 188 10.0 20.0 0.00 0.06 0.00 66 1005.3
20260903100710 79 196 8.0 14.0 0.00 0.06 0.00 66 1005.3
20260903095710 79 207 9.0 16.0 0.00 0.06 0.00 65 1005.4